SCP
0 0 0 0 0 0 0 0 1 0 0 0 0 0 0 0 0 0 0 0 0 0 0 0 0 0 0 0 0 0 0 0 0 0 0 0 0 0 0 0 0 0 0
0 0 0 0 0 0 0 0 1 1 1 1 1 1 1 0 0 0 0 0 0 0 0 0 0 0 0 0 0 0 0 0 0 0 0 0 0 0 1 1 1 0 1
0 0 0 0 0 0 0 0 0 1 1 1 1 1 1 1 0 1 1 1 0 0 0 0 0 1 0 0 0 0 0 0 0 0 0 0 0 0 1 2 1 0 1
0 0 0 0 0 0 0 0 0 0 0 0 0 0 1 0 1 1 1 1 0 0 0 0 0 2 0 1 1 0 0 0 0 0 0 1 0 0 0 0 1 1 -0
0 0 0 0 0 0 0 0 0 0 0 0 0 0 1 0 0 0 1 2 1 1 0 0 1 1 1 1 2 1 0 0 0 0 0 0 0 0 0 0 0 1 1
0 0 0 0 0 0 0 0 0 0 0 0 0 0 0 0 0 0 0 0 0 0 1 0 2 2 1 1 1 1 0 0 0 0 0 0 0 0 0 0 0 0 0
0 0 0 0 0 0 0 0 0 0 0 0 0 0 1 1 1 0 0 1 0 0 0 2 2 1 2 1 1 2 1 1 0 0 0 0 0 0 0 0 0 0 0
0 0 0 0 0 0 0 0 0 0 0 0 0 0 0 0 0 0 0 0 0 0 1 1 2 2 2 2 2 1 1 1 1 0 0 0 0 0 0 0 0 0 0
0 0 0 0 0 0 0 0 0 0 0 0 0 0 0 0 0 1 1 0 1 0 0 1 1 1 1 2 3 2 2 2 2 2 1 0 0 0 0 0 0 0 0
0 0 0 0 0 0 0 0 0 0 0 0 0 0 0 0 0 0 0 0 0 0 0 0 0 1 1 1 2 2 2 1 1 1 1 1 0 0 0 0 0 0 0
0 0 0 0 0 0 0 0 0 0 0 0 0 0 0 0 0 0 0 0 0 0 0 0 0 0 0 0 1 2 1 1 1 1 0 0 0 0 0 0 0 0 0
0 0 0 0 0 0 0 0 0 0 -0 0 0 0 0 0 0 0 0 0 0 0 0 0 0 0 0 0 0 0 0 0 1 0 0 0 0 0 0 0 0 0 0
0 0 0 0 0 0 0 0 0 0 0 0 0 0 0 0 0 0 0 0 0 0 0 0 0 0 0 0 0 0 0 0 0 0 0 0 0 0 0 0 0 0 0
0 0 0 0 0 0 0 0 0 0 0 0 0 0 0 0 0 0 0 0 0 0 0 0 0 0 0 0 0 0 0 0 0 0 0 0 0 0 0 0 0 0 0
0 0 0 0 0 0 0 0 0 0 0 0 0 0 0 0 0 0 0 0 0 0 0 0 0 0 0 0 0 0 0 0 0 0 0 0 0 0 0 0 0 0 1
0 0 0 0 0 0 0 0 0 0 0 0 0 0 0 0 0 0 -0 0 0 0 0 0 0 0 0 0 0 0 0 0 0 0 0 0 0 0 0 0 0 0 0
0 0 0 0 0 0 0 0 0 0 0 0 0 0 0 0 0 0 0 0 0 0 0 0 0 0 0 0 0 0 0 0 0 0 0 0 0 0 0 0 0 -0 -0
0 0 0 0 0 0 0 0 0 0 0 0 0 0 0 0 0 0 0 0 0 0 0 0 0 0 0 0 0 -0 -0 -0 0 0 0 0 0 0 0 0 0 0 0
0 0 0 0 0 0 0 0 0 0 0 0 0 0 0 0 0 0 0 0 0 0 0 -0 -0 0 0 -0 -0 -0 -0 -0 0 -0 -0 0 0 0 0 0 0 0 0
0 0 0 0 0 0 0 0 0 0 0 0 0 0 0 0 -0 0 0 0 0 0 -0 -0 -0 -0 -0 -0 -0 -0 -0 -0 -0 -0 0 0 0 0 0 0 0 0 0
0 0 0 0 0 0 0 0 0 0 0 0 0 0 -0 -0 -0 -0 0 0 0 -0 -0 -0 -0 -0 -0 -0 -0 -0 -0 -0 0 0 0 0 0 0 0 0 0 0 0
0 0 0 0 0 0 0 0 0 0 0 0 0 -0 -0 -0 -0 -0 -0 -0 -0 -0 -0 -0 -0 -0 -0 -0 -0 -0 -0 0 0 0 0 0 0 0 0 0 0 0 0
0 0 0 0 0 0 0 0 0 0 0 0 0 0 -0 -0 -0 -0 0 0 0 0 -0 -0 0 0 0 0 0 0 -0 -0 0 0 0 0 0 0 -0 0 0 0 0
0 0 0 0 0 0 0 0 0 0 0 0 0 0 0 0 0 0 0 0 0 0 0 0 0 0 0 0 0 0 0 0 0 -0 0 0 0 0 0 0 0 0 0
0 0 0 0 0 0 0 0 0 0 0 0 0 0 0 0 0 0 0 0 0 0 0 0 0 0 0 0 0 0 0 0 0 0 0 0 0 0 0 0 0 0 0
0 0 0 0 0 0 0 0 0 0 0 0 0 0 0 0 0 0 0 0 0 0 0 0 0 0 -0 0 0 -0 0 -0 0 0 0 0 0 0 0 0 0 0 0
Wind_Speed_500mb
21 25 28 25 21 17 11 8 10 12 6 9 12 14 14 14 12 12 12 9 8 9 18 12 17 21 17 34 31 26 23 23 23 30 33 36 37 40 38 35 43 37 39
19 22 23 23 21 17 14 12 10 12 9 9 9 15 11 15 18 16 18 20 24 18 18 22 22 24 26 24 43 35 33 23 22 26 30 38 34 35 35 33 28 24 27
15 18 20 21 20 18 17 14 14 15 12 15 14 15 19 25 25 24 21 16 17 21 27 31 34 37 39 31 33 30 35 26 25 22 24 30 32 35 20 25 26 18 18
12 15 18 19 19 18 18 19 20 21 19 26 25 26 27 35 35 33 36 42 36 36 39 43 42 45 44 45 43 38 31 29 26 22 23 24 28 30 34 32 31 29 16
16 18 21 22 23 24 26 27 28 29 28 27 32 29 31 33 35 38 44 55 51 49 45 49 50 48 47 46 45 44 41 32 26 22 22 23 25 29 31 41 38 23 15
25 23 26 31 34 38 39 38 39 40 38 37 37 39 43 43 44 44 46 47 51 48 46 44 47 50 50 49 47 41 36 39 34 24 21 20 23 27 29 36 39 37 33
32 32 42 48 50 48 46 48 47 48 45 44 43 43 47 50 54 55 53 54 52 51 48 44 47 41 50 47 51 51 46 35 31 27 23 22 22 24 25 32 39 39 35
36 48 56 56 54 52 53 55 54 53 51 51 53 52 52 52 54 57 57 52 50 52 58 64 60 59 55 58 61 61 49 45 35 30 27 25 23 23 24 29 33 41 38
41 48 53 59 57 57 57 57 59 57 55 57 59 60 59 57 59 63 65 63 57 56 60 61 61 59 56 52 64 69 61 52 45 37 31 31 24 24 25 27 31 37 41
54 55 55 56 58 58 61 61 62 61 61 62 62 63 64 62 57 58 60 68 72 66 69 67 66 70 73 70 68 75 76 66 52 42 37 35 31 30 28 28 32 36 39
51 64 60 61 63 61 65 67 66 68 70 66 68 69 64 59 61 65 71 67 69 72 76 72 73 70 69 73 72 76 77 66 59 48 41 40 39 37 32 32 33 39 40
63 63 56 60 65 69 70 70 70 73 75 68 61 58 60 65 61 56 55 54 60 53 49 52 58 64 63 64 71 70 76 76 62 56 52 46 39 41 39 35 39 41 42
64 68 68 68 71 70 71 74 71 66 64 63 64 67 60 61 60 63 66 64 59 62 54 55 57 55 55 54 57 66 59 62 62 55 54 49 44 45 44 43 42 38 39
69 64 65 74 75 73 70 70 66 63 61 59 56 59 63 61 65 67 67 65 61 59 56 51 52 53 52 55 69 59 56 58 53 62 65 58 50 52 49 45 42 40 45
61 68 76 74 76 80 74 74 61 54 60 75 70 66 65 68 66 62 62 62 57 58 55 59 54 52 56 51 54 65 57 54 59 56 61 64 61 60 57 46 42 38 41
70 76 68 81 81 78 75 64 54 74 71 67 64 65 64 65 60 61 63 60 60 59 61 65 56 58 55 58 54 53 55 56 54 68 70 61 59 59 64 65 61 52 33
75 67 75 75 74 69 60 60 84 71 65 61 64 59 60 57 56 58 54 59 58 58 58 57 53 58 58 55 58 53 54 59 58 64 49 49 47 51 53 50 65 62 59
68 66 77 72 72 58 81 71 67 64 63 63 60 56 55 54 56 51 54 53 55 49 50 53 55 54 50 50 49 55 61 63 61 59 55 54 51 47 40 33 40 42 58
63 74 64 69 58 78 70 67 62 63 61 58 55 55 52 53 51 53 48 49 45 51 49 47 44 44 44 43 37 39 43 48 55 56 61 57 49 49 42 42 42 36 42
69 66 66 54 76 71 63 56 58 59 56 56 52 51 52 48 45 45 43 47 50 50 43 38 36 37 37 40 45 45 51 54 52 48 49 51 50 42 47 42 42 31 42
72 65 55 69 72 65 54 58 63 61 58 53 54 46 41 38 37 39 42 43 43 41 44 43 37 38 38 39 39 40 44 43 43 46 39 38 41 41 37 34 33 38 41
65 56 58 68 68 62 56 60 62 57 53 43 43 41 37 31 36 41 40 37 41 38 37 35 34 31 28 28 31 43 51 49 51 46 39 36 34 34 36 36 38 38 46
59 46 67 68 66 61 53 58 59 51 48 43 39 34 39 33 32 28 32 39 30 28 24 22 24 20 17 18 22 29 39 43 44 40 36 33 34 39 41 46 49 45 49
50 55 64 64 67 61 53 51 54 47 40 36 39 41 35 36 32 31 31 32 24 21 16 13 15 13 8 3 4 8 16 25 32 28 27 29 35 46 56 52 50 48 50
48 59 57 58 62 61 53 46 49 45 35 31 44 39 37 42 38 32 29 30 28 22 17 14 9 10 11 12 14 14 22 29 32 32 35 51 56 63 71 57 42 49 71
46 59 59 54 59 56 51 43 44 42 35 39 48 45 44 48 33 32 31 27 29 25 21 23 16 7 9 14 17 26 33 41 48 55 63 66 67 77 73 62 65 79 97
Wind_Direction_500mb
45 44 44 43 41 37 23 7 344 344 325 290 259 259 249 238 239 245 250 272 273 297 311 309 305 316 317 300 312 315 317 305 302 296 295 291 283 275 269 266 268 268 270
46 43 41 41 39 37 37 26 12 349 348 313 287 274 283 254 250 248 259 281 288 292 303 296 293 300 293 304 301 308 315 306 298 293 299 296 291 274 261 256 264 263 265
18 21 28 30 27 24 22 11 359 343 331 308 315 294 285 284 269 268 262 266 270 284 289 287 285 281 285 292 278 292 290 294 290 288 282 294 291 318 286 295 274 239 236
355 356 350 358 358 358 356 352 351 347 335 330 322 312 299 288 275 281 284 290 280 278 281 282 272 268 271 267 268 283 267 288 284 277 266 265 279 288 295 287 288 306 315
330 331 333 333 330 331 327 323 322 319 315 315 314 302 292 285 285 281 274 267 267 280 284 285 272 269 265 266 269 254 267 262 273 269 271 268 265 270 269 289 292 285 282
312 314 314 316 312 311 309 307 309 308 305 304 295 288 288 288 285 280 277 282 286 283 278 269 276 264 261 254 257 251 250 255 245 255 258 266 268 269 272 278 280 283 291
299 316 320 314 309 306 307 306 304 304 304 303 300 293 287 282 278 283 285 282 281 280 277 274 272 274 265 256 246 249 241 242 250 249 255 257 262 269 271 274 278 279 278
311 307 303 303 309 311 309 306 302 301 301 300 299 296 290 285 280 278 278 276 274 275 274 273 273 267 265 260 247 239 240 244 244 246 250 257 263 268 271 273 277 278 274
299 303 309 314 315 308 305 304 303 300 301 301 300 297 295 290 285 280 278 277 278 278 278 275 273 265 262 259 250 241 235 234 234 236 247 258 262 265 271 271 269 269 276
316 310 312 309 304 303 303 303 301 299 299 298 296 295 295 292 283 273 272 273 276 281 280 275 269 268 262 260 255 243 236 230 231 234 236 245 255 263 273 277 270 262 262
314 307 309 302 305 311 310 307 305 303 299 296 295 294 291 291 291 291 287 288 285 282 273 273 268 264 264 257 258 244 236 231 235 233 234 241 252 264 268 274 271 262 257
304 309 314 315 318 314 309 308 308 304 300 298 297 296 293 294 289 285 288 284 285 282 281 278 274 267 264 259 259 250 237 224 224 235 245 245 248 259 268 272 273 258 252
316 319 318 319 314 314 314 315 312 306 304 302 297 295 291 287 286 284 284 284 283 283 276 276 273 271 264 268 257 249 238 240 239 232 239 244 248 254 259 262 260 257 258
317 318 324 320 317 321 320 314 310 307 303 298 295 289 287 287 287 286 285 285 277 276 277 277 274 272 267 261 262 250 235 237 242 245 239 243 246 252 257 262 257 249 248
324 328 322 323 323 318 315 312 307 304 299 296 291 285 284 287 290 282 285 287 282 276 275 274 266 270 268 260 262 261 251 240 249 251 252 247 246 248 249 248 250 239 245
325 322 327 323 318 318 314 310 305 303 308 303 300 299 298 297 291 289 290 289 284 280 277 282 274 262 265 263 254 246 251 250 252 252 248 242 244 248 247 238 228 223 232
324 328 323 321 323 319 314 305 307 311 309 303 304 302 303 298 295 293 287 291 289 287 281 283 276 267 257 262 257 255 252 252 248 249 245 239 242 247 247 247 239 222 221
328 327 324 322 320 313 310 318 317 313 310 307 309 307 308 299 297 293 291 292 291 289 284 285 277 273 260 260 255 247 247 250 251 241 244 241 241 245 237 233 236 234 223
328 327 321 321 314 320 327 324 317 315 316 315 314 311 309 307 298 293 293 293 288 290 290 286 283 271 261 258 254 249 250 246 246 249 246 243 241 242 227 222 224 223 218
329 326 326 318 322 333 329 323 324 325 325 325 319 317 313 308 297 298 295 291 292 296 293 288 276 275 268 258 251 245 244 243 242 246 243 237 231 232 224 221 213 223 212
329 328 321 321 333 336 330 331 334 331 329 322 317 322 319 311 309 301 298 303 303 298 293 290 281 266 257 256 250 241 235 237 239 237 230 230 230 218 206 202 211 224 208
331 326 318 330 339 343 338 333 334 333 333 330 326 324 322 316 307 307 308 305 305 300 303 296 292 287 281 268 251 239 237 232 230 228 220 220 223 206 196 185 207 203 185
329 322 328 334 342 344 341 336 339 338 342 343 338 341 333 329 332 326 323 318 317 317 320 318 310 307 292 278 264 248 233 227 229 232 235 225 207 194 187 184 185 182 176
326 319 332 335 336 341 340 338 343 345 349 345 344 350 345 341 340 333 337 347 347 346 337 338 323 323 330 53 107 157 172 187 199 192 186 180 181 173 167 169 175 173 173
320 326 331 331 334 338 338 338 345 349 354 347 351 360 1 353 346 348 356 5 11 16 25 11 23 57 80 76 66 100 140 145 151 154 159 158 152 156 160 155 153 172 168
320 327 333 332 333 335 337 337 343 349 346 346 355 359 1 354 5 12 19 25 34 30 17 34 47 69 124 114 97 107 121 134 136 137 139 147 157 156 156 155 153 149 147
Wind_Speed_850mb
21 25 28 25 21 17 11 8 10 12 6 9 12 14 14 14 12 12 12 9 8 9 18 12 17 21 17 34 31 26 23 23 23 30 33 36 37 40 38 35 43 37 39
19 22 23 23 21 17 14 12 10 12 9 9 9 15 11 15 18 16 18 20 24 18 18 22 22 24 26 24 43 35 33 23 22 26 30 38 34 35 35 33 28 24 27
15 18 20 21 20 18 17 14 14 15 12 15 14 15 19 25 25 24 21 16 17 21 27 31 34 37 39 31 33 30 35 26 25 22 24 30 32 35 20 25 26 18 18
12 15 18 19 19 18 18 19 20 21 19 26 25 26 27 35 35 33 36 42 36 36 39 43 42 45 44 45 43 38 31 29 26 22 23 24 28 30 34 32 31 29 16
16 18 21 22 23 24 26 27 28 29 28 27 32 29 31 33 35 38 44 55 51 49 45 49 50 48 47 46 45 44 41 32 26 22 22 23 25 29 31 41 38 23 15
25 23 26 31 34 38 39 38 39 40 38 37 37 39 43 43 44 44 46 47 51 48 46 44 47 50 50 49 47 41 36 39 34 24 21 20 23 27 29 36 39 37 33
32 32 42 48 50 48 46 48 47 48 45 44 43 43 47 50 54 55 53 54 52 51 48 44 47 41 50 47 51 51 46 35 31 27 23 22 22 24 25 32 39 39 35
36 48 56 56 54 52 53 55 54 53 51 51 53 52 52 52 54 57 57 52 50 52 58 64 60 59 55 58 61 61 49 45 35 30 27 25 23 23 24 29 33 41 38
41 48 53 59 57 57 57 57 59 57 55 57 59 60 59 57 59 63 65 63 57 56 60 61 61 59 56 52 64 69 61 52 45 37 31 31 24 24 25 27 31 37 41
54 55 55 56 58 58 61 61 62 61 61 62 62 63 64 62 57 58 60 68 72 66 69 67 66 70 73 70 68 75 76 66 52 42 37 35 31 30 28 28 32 36 39
51 64 60 61 63 61 65 67 66 68 70 66 68 69 64 59 61 65 71 67 69 72 76 72 73 70 69 73 72 76 77 66 59 48 41 40 39 37 32 32 33 39 40
63 63 56 60 65 69 70 70 70 73 75 68 61 58 60 65 61 56 55 54 60 53 49 52 58 64 63 64 71 70 76 76 62 56 52 46 39 41 39 35 39 41 42
64 68 68 68 71 70 71 74 71 66 64 63 64 67 60 61 60 63 66 64 59 62 54 55 57 55 55 54 57 66 59 62 62 55 54 49 44 45 44 43 42 38 39
69 64 65 74 75 73 70 70 66 63 61 59 56 59 63 61 65 67 67 65 61 59 56 51 52 53 52 55 69 59 56 58 53 62 65 58 50 52 49 45 42 40 45
61 68 76 74 76 80 74 74 61 54 60 75 70 66 65 68 66 62 62 62 57 58 55 59 54 52 56 51 54 65 57 54 59 56 61 64 61 60 57 46 42 38 41
70 76 68 81 81 78 75 64 54 74 71 67 64 65 64 65 60 61 63 60 60 59 61 65 56 58 55 58 54 53 55 56 54 68 70 61 59 59 64 65 61 52 33
75 67 75 75 74 69 60 60 84 71 65 61 64 59 60 57 56 58 54 59 58 58 58 57 53 58 58 55 58 53 54 59 58 64 49 49 47 51 53 50 65 62 59
68 66 77 72 72 58 81 71 67 64 63 63 60 56 55 54 56 51 54 53 55 49 50 53 55 54 50 50 49 55 61 63 61 59 55 54 51 47 40 33 40 42 58
63 74 64 69 58 78 70 67 62 63 61 58 55 55 52 53 51 53 48 49 45 51 49 47 44 44 44 43 37 39 43 48 55 56 61 57 49 49 42 42 42 36 42
69 66 66 54 76 71 63 56 58 59 56 56 52 51 52 48 45 45 43 47 50 50 43 38 36 37 37 40 45 45 51 54 52 48 49 51 50 42 47 42 42 31 42
72 65 55 69 72 65 54 58 63 61 58 53 54 46 41 38 37 39 42 43 43 41 44 43 37 38 38 39 39 40 44 43 43 46 39 38 41 41 37 34 33 38 41
65 56 58 68 68 62 56 60 62 57 53 43 43 41 37 31 36 41 40 37 41 38 37 35 34 31 28 28 31 43 51 49 51 46 39 36 34 34 36 36 38 38 46
59 46 67 68 66 61 53 58 59 51 48 43 39 34 39 33 32 28 32 39 30 28 24 22 24 20 17 18 22 29 39 43 44 40 36 33 34 39 41 46 49 45 49
50 55 64 64 67 61 53 51 54 47 40 36 39 41 35 36 32 31 31 32 24 21 16 13 15 13 8 3 4 8 16 25 32 28 27 29 35 46 56 52 50 48 50
48 59 57 58 62 61 53 46 49 45 35 31 44 39 37 42 38 32 29 30 28 22 17 14 9 10 11 12 14 14 22 29 32 32 35 51 56 63 71 57 42 49 71
46 59 59 54 59 56 51 43 44 42 35 39 48 45 44 48 33 32 31 27 29 25 21 23 16 7 9 14 17 26 33 41 48 55 63 66 67 77 73 62 65 79 97
Wind_Direction_850mb
45 44 44 43 41 37 23 7 344 344 325 290 259 259 249 238 239 245 250 272 273 297 311 309 305 316 317 300 312 315 317 305 302 296 295 291 283 275 269 266 268 268 270
46 43 41 41 39 37 37 26 12 349 348 313 287 274 283 254 250 248 259 281 288 292 303 296 293 300 293 304 301 308 315 306 298 293 299 296 291 274 261 256 264 263 265
18 21 28 30 27 24 22 11 359 343 331 308 315 294 285 284 269 268 262 266 270 284 289 287 285 281 285 292 278 292 290 294 290 288 282 294 291 318 286 295 274 239 236
355 356 350 358 358 358 356 352 351 347 335 330 322 312 299 288 275 281 284 290 280 278 281 282 272 268 271 267 268 283 267 288 284 277 266 265 279 288 295 287 288 306 315
330 331 333 333 330 331 327 323 322 319 315 315 314 302 292 285 285 281 274 267 267 280 284 285 272 269 265 266 269 254 267 262 273 269 271 268 265 270 269 289 292 285 282
312 314 314 316 312 311 309 307 309 308 305 304 295 288 288 288 285 280 277 282 286 283 278 269 276 264 261 254 257 251 250 255 245 255 258 266 268 269 272 278 280 283 291
299 316 320 314 309 306 307 306 304 304 304 303 300 293 287 282 278 283 285 282 281 280 277 274 272 274 265 256 246 249 241 242 250 249 255 257 262 269 271 274 278 279 278
311 307 303 303 309 311 309 306 302 301 301 300 299 296 290 285 280 278 278 276 274 275 274 273 273 267 265 260 247 239 240 244 244 246 250 257 263 268 271 273 277 278 274
299 303 309 314 315 308 305 304 303 300 301 301 300 297 295 290 285 280 278 277 278 278 278 275 273 265 262 259 250 241 235 234 234 236 247 258 262 265 271 271 269 269 276
316 310 312 309 304 303 303 303 301 299 299 298 296 295 295 292 283 273 272 273 276 281 280 275 269 268 262 260 255 243 236 230 231 234 236 245 255 263 273 277 270 262 262
314 307 309 302 305 311 310 307 305 303 299 296 295 294 291 291 291 291 287 288 285 282 273 273 268 264 264 257 258 244 236 231 235 233 234 241 252 264 268 274 271 262 257
304 309 314 315 318 314 309 308 308 304 300 298 297 296 293 294 289 285 288 284 285 282 281 278 274 267 264 259 259 250 237 224 224 235 245 245 248 259 268 272 273 258 252
316 319 318 319 314 314 314 315 312 306 304 302 297 295 291 287 286 284 284 284 283 283 276 276 273 271 264 268 257 249 238 240 239 232 239 244 248 254 259 262 260 257 258
317 318 324 320 317 321 320 314 310 307 303 298 295 289 287 287 287 286 285 285 277 276 277 277 274 272 267 261 262 250 235 237 242 245 239 243 246 252 257 262 257 249 248
324 328 322 323 323 318 315 312 307 304 299 296 291 285 284 287 290 282 285 287 282 276 275 274 266 270 268 260 262 261 251 240 249 251 252 247 246 248 249 248 250 239 245
325 322 327 323 318 318 314 310 305 303 308 303 300 299 298 297 291 289 290 289 284 280 277 282 274 262 265 263 254 246 251 250 252 252 248 242 244 248 247 238 228 223 232
324 328 323 321 323 319 314 305 307 311 309 303 304 302 303 298 295 293 287 291 289 287 281 283 276 267 257 262 257 255 252 252 248 249 245 239 242 247 247 247 239 222 221
328 327 324 322 320 313 310 318 317 313 310 307 309 307 308 299 297 293 291 292 291 289 284 285 277 273 260 260 255 247 247 250 251 241 244 241 241 245 237 233 236 234 223
328 327 321 321 314 320 327 324 317 315 316 315 314 311 309 307 298 293 293 293 288 290 290 286 283 271 261 258 254 249 250 246 246 249 246 243 241 242 227 222 224 223 218
329 326 326 318 322 333 329 323 324 325 325 325 319 317 313 308 297 298 295 291 292 296 293 288 276 275 268 258 251 245 244 243 242 246 243 237 231 232 224 221 213 223 212
329 328 321 321 333 336 330 331 334 331 329 322 317 322 319 311 309 301 298 303 303 298 293 290 281 266 257 256 250 241 235 237 239 237 230 230 230 218 206 202 211 224 208
331 326 318 330 339 343 338 333 334 333 333 330 326 324 322 316 307 307 308 305 305 300 303 296 292 287 281 268 251 239 237 232 230 228 220 220 223 206 196 185 207 203 185
329 322 328 334 342 344 341 336 339 338 342 343 338 341 333 329 332 326 323 318 317 317 320 318 310 307 292 278 264 248 233 227 229 232 235 225 207 194 187 184 185 182 176
326 319 332 335 336 341 340 338 343 345 349 345 344 350 345 341 340 333 337 347 347 346 337 338 323 323 330 53 107 157 172 187 199 192 186 180 181 173 167 169 175 173 173
320 326 331 331 334 338 338 338 345 349 354 347 351 360 1 353 346 348 356 5 11 16 25 11 23 57 80 76 66 100 140 145 151 154 159 158 152 156 160 155 153 172 168
320 327 333 332 333 335 337 337 343 349 346 346 355 359 1 354 5 12 19 25 34 30 17 34 47 69 124 114 97 107 121 134 136 137 139 147 157 156 156 155 153 149 147